RADIO ROSTO (RS15)

Last updated on Sun Aug 09 2026 00:03:15 GMT+0000 (Coordinated Universal Time)

1 23439U 94085A 26220.53122246 -.00000021 00000+0 62320-3 0 9993 2 23439 64.8128 218.5595 0157850 354.2888 5.6232 11.27584001301800
UTC large
Height (km)
Speed (km/s)
/
Latitude / Longitude
Inclination (degrees)
Orbital Period (minutes)
Azimuth
Elevation
Range (km)
Doppler Factor

Next 0 passes for location: London (51.5072 / 0.1276)

No passes found over London.
RADIO ROSTO (RS15)